Regional Weather Roundup
Issued by NWS Bismarck, ND

Home | Current Version | Previous Version | Text Only | Print | Product List | Glossary On
Versions: 1 2 3 4 5 6 7 8 9 10 11 12 13 14 15 16 17 18 19 20 21 22 23 24 25 26 27 28 29 30 31 32 33 34 35 36 37 38 39 40 41 42 43 44 45 46 47 48 49 50
102
ASUS43 KBIS 102010
RWRBIS

NWR BROADCAST TEXT
NATIONAL WEATHER SERVICE BISMARCK ND
200 PM CST SAT DEC 10 2016

NOTE: "FAIR" INDICATES FEW OR NO CLOUDS BELOW 12,000 FEET WITH NO
SIGNIFICANT WEATHER AND/OR OBSTRUCTIONS TO VISIBILITY.


CITY           SKY/WX    TMP DP  RH WIND       PRES   REMARKS
WILLISTON      LGT SNOW   1  -6  72 E12       30.05F WCI -16
MINOT          CLOUDY    -9 -13  83 E6        30.17F WCI -22
MINOT AFB      CLOUDY   -11 -16  77 E8        30.17F WCI -27
BISMARCK       LGT SNOW  -6  -9  86 E9        30.16F FOG     WCI -23
DICKINSON      CLOUDY    -2  -8  76 SE15      29.94F WCI -22
GARRISON         N/A     -6 -10  83 E12       30.12F WCI -25
HETTINGER ARPT CLOUDY    -2  -6  83 E15       29.94F WCI -22
JAMESTOWN      CLOUDY    -2  -8  76 SE12      30.22F WCI -20
CARRINGTON     CLOUDY    -6 -11  77 SE8       30.24F WCI -21
HAZEN          CLOUDY    -4 -11  71 NE8       30.16S WCI -19
RUGBY            N/A     -8 N/A N/A SE7       30.24F WCI -22
STANLEY        CLOUDY    -4  -6  92 SE13      30.08F WCI -23
TIOGA          LGT SNOW  -2  -4  92 SE17      30.04F WCI -24
$$

CITY           SKY/WX    TMP DP  RH WIND       PRES   REMARKS
GRAND FORKS    PTSUNNY   -2  -9  72 S6        30.37F WCI -14
GRAND FORKS AF MOSUNNY   -3 -10  72 SE5       30.36F WCI -14
DEVILS LAKE    SUNNY     -5  -9  83 SE8       30.26F WCI -20
FARGO          CLOUDY     1  -7  68 E6        30.35F WCI -10
CANDO          MOCLDY    -4  -8  84 S3        30.27F
CAVALIER         N/A     -4 -11  71 S5        30.38F WCI -15
GRAFTON        FAIR      -6 -11  77 SE3       30.40F
GWINNER        CLOUDY     1  -4  78 E9        30.27F WCI -14
LANGDON        FAIR      -2  -9  71 S9        30.26F WCI -18
ROLLA          FAIR     -11 -15  84 S7        30.21F WCI -26
WALHALLA         N/A     -2  -2 100 S5        30.37F WCI -12
$$

CITY           SKY/WX    TMP DP  RH WIND       PRES   REMARKS
ABERDEEN       LGT SNOW   6  -2  69 E13       30.20F WCI -10
MOBRIDGE       LGT SNOW   3  -5  69 E10       30.07F WCI -12
BUFFALO          N/A      5  -2  72 SE17      29.75F WCI -14
RAPID CITY     CLOUDY     6   2  83 SE8       29.81F WCI  -7
GLASGOW        LGT SNOW   1  -5  75 E17G24    29.85F VSB 1   WCI -19
SIDNEY         FLURRIES   4  -3  73 E13       29.99F WCI -13
WOLF POINT     CLOUDY     4  -4  69 E17       29.94F WCI -16
GLENDIVE       CLOUDY     5  -1  76 E13       29.88F WCI -12
MILES CITY     CLOUDY    11   2  67 SE14      29.77F WCI  -5
BAKER          CLOUDY     3  -3  76 SE21G30   29.81F WCI -18
$$

CITY           SKY/WX    TMP DP  RH WIND       PRES   REMARKS
BILLINGS       SNOW      12   9  87 E3        29.64F VSB 1/2
GREAT FALLS    CLOUDY     6   1  80 W9        29.69R WCI  -8
REGINA         MOSUNNY   -6 -11  77 SE16      30.07F WCI -28
ESTEVAN        FLURRIES  -8 -13  77 E14       30.09F WCI -28
$$





USA.gov is the U.S. government's official web portal to all federal, state and local government web resources and services.